Regional Weather Roundup
Issued by NWS Sioux Falls, SD

Home | Current Version | Previous Version | Graphics & Text | Print | Product List | Glossary Off
Versions: 1 2 3 4 5 6 7 8 9 10 11 12 13 14 15 16 17 18 19 20 21 22 23 24 25 26 27 28 29 30 31 32 33 34 35 36 37 38 39 40 41 42 43 44 45 46 47 48 49 50

000
ASUS43 KFSD 182310
RWRFSD

WEATHER ROUNDUP FOR SE SOUTH DAKOTA/SW MINNESOTA/NW IOWA
NATIONAL WEATHER SERVICE SIOUX FALLS SD
600 PM CDT THU SEP 18 2014

NOTE: "FAIR" INDICATES FEW OR NO CLOUDS BELOW 12,000 FEET WITH NO
SIGNIFICANT WEATHER AND OR OBSTRUCTIONS TO VISIBILITY.


SDZ038>040-050-052>070-190000-
SOUTHEAST SOUTH DAKOTA

CITY           SKY/WX    TMP DP  RH WIND       PRES   REMARKS
CHAMBERLAIN    SUNNY     76  62  60 SE16      29.81F
HURON          SUNNY     76  59  55 S15G23    29.83F
MADISON        FAIR      72  55  56 S14G21    29.92F
MITCHELL       SUNNY     76  58  53 SE13      29.87F
SIOUX FALLS    MOSUNNY   74  54  49 S14       29.93S
WINNER         FAIR      82  60  47 S14G24    29.80F
YANKTON        SUNNY     73  57  56 SE16      29.90F
$$

MNZ071-072-080-081-089-090-097-098-190000-
SOUTHWEST MINNESOTA

CITY           SKY/WX    TMP DP  RH WIND       PRES   REMARKS
FAIRMONT       SUNNY     72  43  35 S12G17    29.98F
JACKSON        SUNNY     72  46  40 S10       29.98S
LUVERNE        SUNNY     73  52  46 S10       29.95S
MARSHALL       MOSUNNY   73  52  46 S14       29.93S
MONTEVIDEO     MOSUNNY   75  54  46 S10       29.92F
PIPESTONE      MOSUNNY   73  54  49 S12G17    29.94S
REDWOOD FALLS  SUNNY     75  50  41 S14       29.94F
TRACY          MOSUNNY   74  54  49 S8        29.95S
WINDOM         SUNNY     73  48  40 S7        29.97S
WORTHINGTON    SUNNY     72  48  43 S12       29.97S
$$

IAZ001>003-012>014-020>022-031-032-NEZ013-014-SDZ071-190000-
NORTHWEST IOWA

CITY           SKY/WX    TMP DP  RH WIND       PRES   REMARKS
CHEROKEE       SUNNY     72  55  54 SE10      29.96F
DENISON        SUNNY     72  57  60 S10       29.97S
ESTHERVILLE    SUNNY     71  49  45 S10       29.98S
LE MARS        SUNNY     73  55  53 SE12G17   29.95S
ORANGE CITY    SUNNY     73  54  49 SE8       29.95F
SHELDON        SUNNY     70  54  56 SE13G20   29.95S
SIOUX CITY     SUNNY     75  56  51 S12       29.94F
SPENCER        SUNNY     72  49  44 S14       29.97F
STORM LAKE     SUNNY     70  57  64 S9G16     29.98F
$$

ABBREVIATIONS USED IN REMARKS
   TC - TEMPERATURE IN CELSIUS
  WCI - WIND CHILL INDEX
   HX - HEAT INDEX
  VSB - VISIBILITY




USA.gov is the U.S. government's official web portal to all federal, state and local government web resources and services.